Flag for Spain Weather past 2 weeks in Valladolid, Spain

Now
79 °F

Scattered clouds.


Feels Like: 78 °F
Forecast: 56 / 89 °F
Wind: 7 mph from Southeast

Location: Valladolid / Villanubla

Current Time: Sep 2, 2014 at 11:38:40 PM

Latest Report: Sep 2, 2014 at 9:30 PM


Visibility: N/A

Pressure: 29.95 "Hg

Humidity: 28%

Dew point: 43 °F

Location of ValladolidLocation

Historic Weather in Valladolid — Graph

°F

Valladolid temperature yesterday

Maximum temperature yesterday: 90 °F (at 4:00 PM)
Minimum temperature yesterday: 54 °F (at 8:00 AM)
Average temperature yesterday: 77 °F

Past Weeks' High & Low Weather Summary

 TemperatureHumidityPressure
High93 °F (Sep 2, 6:00 PM)100% (Aug 27, 7:00 AM)30.18 "Hg (Aug 27, 7:00 AM)
Low48 °F (Aug 20, 7:30 AM)13% (Aug 25, 4:30 PM)29.89 "Hg (Aug 18, 9:00 PM)
Average73 °F48%30.08 "Hg
* Reported Aug 18 9:00 PM — Sep 2 9:30 PM, Valladolid, Weather by CustomWeather, © 2014

Note: Actual official high and low records may vary slightly from our data, if they occured in-between our weather recording intervals... More about our weather records

Advertising

Valladolid weather history for previous 24 hours

 ConditionsComfort  
Time TempWeatherWind HumidityBarometerVisibility
9:30 PM
Sep 2
79 °FScattered clouds.7 mph28%29.95 "HgN/A
9:00 PM84 °FScattered clouds.6 mph22%29.95 "HgN/A
8:30 PM88 °FPassing clouds.12 mph18%29.95 "HgN/A
8:00 PM88 °FPassing clouds.10 mph18%29.95 "HgN/A
7:30 PM90 °FPassing clouds.6 mph16%29.95 "HgN/A
7:00 PM91 °FPassing clouds.2 mph15%29.95 "HgN/A
6:30 PM93 °FSunny.1 mph14%29.95 "Hg10 mi
6:00 PM93 °FSunny.No wind14%29.95 "Hg10 mi
5:30 PM90 °FPassing clouds.5 mph16%29.98 "HgN/A
5:00 PM91 °FPassing clouds.5 mph15%29.98 "HgN/A
4:30 PM91 °FSunny.2 mph15%29.98 "Hg10 mi
4:00 PM91 °FSunny.6 mph15%30.01 "Hg10 mi
3:30 PM91 °FSunny.2 mph15%30.01 "Hg10 mi
3:00 PM90 °FPassing clouds.7 mph16%30.04 "HgN/A
2:30 PM88 °FPassing clouds.5 mph17%30.04 "HgN/A
2:00 PM88 °FSunny.2 mph15%30.04 "Hg10 mi
1:30 PM86 °FPassing clouds.5 mph18%30.07 "HgN/A
1:00 PM84 °FPassing clouds.3 mph23%30.07 "HgN/A
12:30 PM81 °FPassing clouds.3 mph28%30.07 "HgN/A
12:00 PM79 °FPassing clouds.5 mph32%30.07 "HgN/A
11:30 AM77 °FPassing clouds.3 mph34%30.07 "HgN/A
11:00 AM73 °FPassing clouds.3 mph38%30.07 "HgN/A
10:30 AM70 °FPassing clouds.3 mph46%30.07 "HgN/A
10:00 AM68 °FSunny.6 mph49%30.07 "Hg10 mi
9:30 AM64 °FSunny.7 mph56%30.07 "Hg10 mi
9:00 AM63 °FSunny.1 mph59%30.07 "Hg10 mi
8:30 AM57 °FClear.3 mph67%30.07 "Hg10 mi
8:00 AM57 °FPassing clouds.3 mph67%30.07 "HgN/A
7:30 AM59 °FPassing clouds.3 mph63%30.04 "HgN/A
7:00 AM61 °FClear.8 mph63%30.04 "Hg10 mi
Weather by CustomWeather, © 2014

See weather overviewHow to use our weather pages